Location: Newark
(39.0083°N, 20.7336°E)
Time: 03:19:18
(UTC+00:00)

ISS - Pass Details

Date: 04 October 2021
Orbit: 417 x 423 km, 51.6° (Epoch: 15 October)

Event Time Altitude Azimuth Distance (km) Brightness Sun altitude
Rises 17:31:30 0° 310° (NW) 2,365 1.1 -15.7°
Reaches altitude 10° 17:33:36 10° 312° (NW) 1,499 -0.1 -16.1°
Maximum altitude 17:36:58 70° 37° (NE) 449 -3.8 -16.7°
Enters shadow 17:37:45 47° 103° (ESE) 562 -3.6 -16.9°
